User: anonymous
Location: Unspecified
(0.0000°N, 0.0000°E)
Time: 09:40:09
(UTC+00:00)
Language:

GEOEYE 1 - Orbit

View from above orbital plane
View from above orbital plane
View from above satellite
View from above satellite

Ground track
Ground track

The orbit data is extracted from the following two-line orbital elements,

1 33331U 08042A   14260.70868933  .00000439  00000-0  92424-4 0  6329
2 33331 098.1303 334.4766 0009747 169.2151 190.9259 14.64172581322252
Epoch (UTC): 17 September 2014 17:00:30
Eccentricity: 0.0009747
inclination: 98.1303°
perigee height: 673 km
apogee height: 686 km
right ascension of ascending node: 334.4766°
argument of perigee: 169.2151°
revolutions per day: 14.64172581
mean anomaly at epoch: 190.9259°
orbit number at epoch: 32225

The dashed part of the orbit path shows where the satellite is in the earth's shadow,  

DLR